Regional Weather Roundup
Issued by NWS Green Bay, WI

Home | Current Version | Previous Version | Graphics & Text | Print | Product List | Glossary Off
Versions: 1 2 3 4 5 6 7 8 9 10 11 12 13 14 15 16 17 18 19 20 21 22 23 24 25 26 27 28 29 30 31 32 33 34 35 36 37 38 39 40 41 42 43 44 45 46 47 48 49 50

000
ASUS43 KGRB 252211
RWRGRB

NORTH-CENTRAL AND NORTHEAST WISCONSIN REGIONAL WEATHER ROUNDUP
NATIONAL WEATHER SERVICE GREEN BAY WI
500 PM CDT TUE APR 25 2017

WIZ005-009-010>012-018-019-252300-
NORTH CENTRAL WISCONSIN

CITY           SKY/WX    TMP DP  RH WIND       PRES   REMARKS
IRONWOOD       CLOUDY    47  37  68 N7        29.60S
MANITOWISH WTR CLOUDY    69  40  35 SE6       29.55S
ARBOR VITAE    CLOUDY    72  39  30 S9        29.55S
EAGLE RIVER    CLOUDY    71  35  26 S7        29.56F
LAND O LAKES   CLOUDY    72  35  25 S8        29.58F
RHINELANDER    CLOUDY    72  44  36 SE8       29.57S
PHILLIPS       CLOUDY    68  43  39 S10       29.54S
ANTIGO         CLOUDY    67  46  46 SE10      29.59S
TOMAHAWK       CLOUDY    68  38  33 S3        29.56R
MERRILL        CLOUDY    72  39  30 S8        29.56S
$$

WIZ013-073-252300-
NORTHEAST WISCONSIN

CITY           SKY/WX    TMP DP  RH WIND       PRES   REMARKS
IRON MOUNTAIN  MOSUNNY   69  43  38 SE16G23   29.58F
MARINETTE      CLOUDY    62  49  62 S10       29.62F
OCONTO         PTSUNNY   64  48  56 SE10      29.60F
$$

WIZ017-030-035>037-045-252300-
CENTRAL WISCONSIN

CITY           SKY/WX    TMP DP  RH WIND       PRES   REMARKS
MEDFORD        DRIZZLE   66  45  46 SW10      29.56R
WAUSAU         CLOUDY    71  41  33 S7        29.54S
MOSINEE        PTSUNNY   70  39  32 S10       29.57R
MARSHFIELD     LGT RAIN  67  41  38 S13G28    29.56R
WISC RAPIDS    LGT RAIN  66  47  50 S6        29.57R
STEVENS POINT  CLOUDY    69  40  34 S8        29.57R
WAUPACA        CLOUDY    73  39  29 S9        29.57R
SHAWANO        CLOUDY    73  51  45 SE14G21   29.57S
CLINTONVILLE   CLOUDY    72  43  35 SE13G20   29.57R
WAUTOMA        CLOUDY    71  44  37 S14G21    29.57R
$$

WIZ038-039-048-051-252300-
FOX VALLEY

CITY           SKY/WX    TMP DP  RH WIND       PRES   REMARKS
NWS GREEN BAY  CLOUDY    69  51  52 SE15      29.59F
APPLETON       PTSUNNY   68  46  45 SE10      29.57F
OSHKOSH        CLOUDY    68  51  54 SE12      29.57S
FOND DU LAC    CLOUDY    69  48  47 SE13      29.57S
$$

WIZ022-050-052-252300-
EAST CENTRAL WISCONSIN

CITY           SKY/WX    TMP DP  RH WIND       PRES   REMARKS
EPHRAIM        FAIR      64  51  64 S12G24    29.63F
WASHINGTON ISL FAIR      56  47  72 SE7       29.66F
STURGEON BAY   MOSUNNY   61  52  72 S17G23    29.63S
MANITOWOC      CLOUDY    57  49  74 S12       29.62F
SHEBOYGAN      CLOUDY    61  52  72 SE6       29.60F
$$

LMZ563-521-522-541>543-252300-
LAKESHORE

STATION/POSITION TIME  TEMP    WIND        PRES    VSBY  WAVE
                       AIR SEA DIR/SP/G                  HT/PER
                 (UTC) (F)     (DEG/KT/KT) (MB)    (MI)  (FT/S)
SHEBOYGAN LKSHOR 2200   48      CALM  /  1 1002.7F
KEWAUNEE LKSHORE 2148   49     180/  6/  8 1003.2F
NORTHPORT PIER   2140   49     120/  9/ 14 1004.4S
N MID LAKE BUOY  2150   41 37   80/  6/  8 1006.2F         1/ 3
CHAMBERS ISLAND  2140   62     150/  5/ 14 1003.4F
MENOMINEE LKSHOR 2148   57     160/ 11/ 18 1002.4F
$$




USA.gov is the U.S. government's official web portal to all federal, state and local government web resources and services.